Location: Montclair
(37.8322°N, 122.2092°W)
Time: 12:33:23
(UTC+00:00)

Cosmos 1821 Rocket - Pass Details

Date: 08 September 2024
Orbit: 943 x 1004 km, 82.9° (Epoch: 12 October)

Event Time Altitude Azimuth Distance (km) Brightness Sun altitude
Rises 12:07:57 0° 346° (NNW) 3,622 7.1 -19.3°
Reaches altitude 10° 12:10:32 10° 340° (NNW) 2,670 6.3 -18.8°
Maximum altitude 12:16:17 45° 270° (W) 1,258 4.2 -17.8°
Drops below altitude 10° 12:22:00 10° 199° (SSW) 2,658 5.9 -16.8°
Enters shadow 12:22:18 - 198° (SSW) 2,764 6.0 -16.7°
